[[{"header":{"parameterUnit":"m.s-1","parameterCategory":1,"la1":30.2991,"la2":30.254,"lo1":-89.0895,"lo2":-89.0444,"dy":0.0017,"dx":0.0017,"nx":28,"ny":28,"refTime":"2024-12-06T03:00:00:Z","depth":0,"parameterNumber":2,"parameterNumberName":"U-component_of_WINDS"},"data":[0,0,0,0,0,0,0,0,0,0,0,0,0,0,0,0,0,0,0,0,0,0,0,0,0,0,0,0,0,0,0,0,0,0,0,0,0,0,0,0,0,0,0,0,0,0,0,0,0,0,0,0,0,0,0,0,0,0,-1.1045,-1.1045,0,-1.104,-1.104,-1.104,-1.1009,-1.1008,-1.1008,-1.1007,-1.1003,-1.1004,-1.1004,0,0,0,0,0,0,0,0,0,0,0,0,0,-1.1028,-1.1029,-1.1045,-1.1045,-1.1045,-1.104,-1.104,-1.104,-1.1009,-1.1008,-1.1007,-1.1007,-1.1003,-1.1003,-1.1004,0,0,0,0,0,0,0,0,0,0,0,0,0,-1.1031,-1.1029,-1.1045,-1.1029,-1.1027,-1.104,-1.104,-1.104,-1.1009,-1.1008,-1.1007,-1.1006,-1.1003,-1.1003,-1.1004,-1.1032,0,0,-1.1007,-1.1007,0,0,0,0,0,0,0,0,-1.1031,-1.1031,-1.1031,-1.103,-1.1028,-1.1024,-1.1033,-1.1037,-1.101,-1.1016,-1.1007,-1.1006,-1.1011,-1.1011,-1.1013,-1.1032,-1.1032,-1.1007,-1.1008,-1.1008,-1.1008,0,0,0,0,0,0,0,-1.103,-1.1031,-1.1043,-1.1031,-1.103,-1.1022,-1.1021,-1.1033,-1.102,-1.1016,-1.1013,-1.1013,-1.101,-1.1012,-1.1012,-1.1032,-1.1007,-1.1008,-1.1008,-1.1009,-1.1074,-1.1075,0,0,0,0,0,0,-1.1032,-1.1031,-1.1043,-1.1043,-1.1027,-1.1023,-1.1022,-1.1027,-1.102,-1.1018,-1.1014,-1.1012,-1.1011,-1.1011,-1.1012,-1.1045,-1.1008,-1.1009,-1.1009,-1.1073,-1.1074,-1.1075,0,0,0,0,0,0,-1.1032,-1.1034,-1.1043,-1.1036,-1.1037,-1.1025,-1.103,-1.1027,-1.1029,-1.1019,-1.1016,-1.1019,-1.101,-1.1011,-1.1027,-1.1044,-1.1009,-1.101,-1.1071,-1.1073,-1.1075,-1.111,0,0,0,0,0,0,-1.1032,-1.1034,-1.1044,-1.1037,-1.1038,-1.1059,-1.1031,-1.1028,-1.103,-1.1027,-1.1022,-1.102,-1.1009,-1.1026,-1.1028,-1.1045,-1.1011,-1.107,-1.1072,-1.1074,-1.1107,-1.1113,-1.1117,0,0,0,0,0,-1.1031,-1.1055,-1.1045,-1.1047,-1.105,-1.106,-1.106,-1.1047,-1.1032,-1.1042,-1.1036,-1.102,-1.1042,-1.1028,-1.103,-1.1047,-1.1069,-1.1071,-1.1074,-1.1105,-1.1112,-1.1117,0,0,0,0,0,0,-1.1065,-1.1053,-1.1043,-1.1064,-1.1063,-1.1055,-1.1068,-1.1054,-1.1058,-1.1055,-1.1038,-1.1037,-1.1056,-1.1053,-1.1038,-1.1074,-1.1053,-1.1056,-1.1075,-1.1081,-1.1086,-1.1087,-1.1012,0,0,0,0,0,-1.1075,-1.1083,-1.1073,-1.1093,-1.1093,-1.108,-1.1084,-1.1073,-1.1072,-1.1071,-1.1066,-1.1065,-1.1071,-1.1076,-1.1081,-1.1106,-1.1105,-1.1119,-1.1124,-1.1128,-1.1131,-1.1144,-1.115,-1.1084,-1.1084,-1.1084,0,0,-1.1096,-1.109,-1.1097,-1.1099,-1.1097,-1.1106,-1.108,-1.1091,-1.1098,-1.1073,-1.1088,-1.1084,-1.1082,-1.1103,-1.1112,-1.1101,-1.1149,-1.1131,-1.1135,-1.1136,-1.1147,-1.1154,-1.1159,-1.1086,-1.1086,-1.1085,0,0,-1.1138,-1.1135,-1.1151,-1.1149,-1.1146,-1.1138,-1.1142,-1.1135,-1.1131,-1.1146,-1.1127,-1.1135,-1.1146,-1.1146,-1.1147,-1.1188,-1.1174,-1.119,-1.1217,-1.123,-1.1235,-1.1239,-1.1255,-1.126,-1.1193,-1.1193,-1.1193,0,-1.1165,-1.1177,-1.1161,-1.1173,-1.1175,-1.1152,-1.1169,-1.1168,-1.1167,-1.1169,-1.1156,-1.117,-1.1167,-1.1187,-1.1197,-1.1199,-1.1203,-1.1191,-1.1235,-1.124,-1.1244,-1.1258,-1.1264,-1.1195,-1.1195,-1.1195,-1.1195,0,-1.121,-1.1219,-1.1233,-1.1232,-1.1235,-1.1249,-1.1235,-1.1241,-1.1229,-1.1222,-1.1238,-1.1233,-1.1237,-1.1241,-1.123,-1.126,-1.1253,-1.1238,-1.1217,-1.1252,-1.1265,-1.1271,-1.1198,-1.1197,-1.1197,-1.1196,0,0,-1.1275,-1.1264,-1.127,-1.1269,-1.1263,-1.127,-1.1283,-1.1286,-1.1291,-1.1291,-1.1302,-1.1311,-1.1297,-1.1299,-1.1288,-1.1299,-1.1332,-1.1283,-1.1282,-1.1292,-1.1364,-1.1376,-1.1383,-1.1322,-1.1323,-1.1324,-1.1365,0,-1.1317,-1.1338,-1.1323,-1.1347,-1.1356,-1.1333,-1.1345,-1.1342,-1.1336,-1.1342,-1.1334,-1.1342,-1.1322,-1.1323,-1.1333,-1.1326,-1.1346,-1.1323,-1.1333,-1.1333,-1.1335,-1.1389,-1.1402,-1.144,-1.1369,-1.137,-1.1371,0,-1.1368,-1.1369,-1.1394,-1.1386,-1.1389,-1.1399,-1.1401,-1.1407,-1.1404,-1.1398,-1.1399,-1.1385,-1.1397,-1.1375,-1.1392,-1.1377,-1.1379,-1.1377,-1.1378,-1.1379,-1.1355,-1.1393,-1.1452,-1.1459,-1.1379,-1.1378,-1.1378,0,-1.1414,-1.1421,-1.1437,-1.1437,-1.1428,-1.1436,-1.1433,-1.1428,-1.1431,-1.1432,-1.1434,-1.1437,-1.1439,-1.1442,-1.1429,-1.1414,-1.1448,-1.1424,-1.1444,-1.1444,-1.1453,-1.1452,-1.1514,-1.1453,-1.1453,-1.1453,-1.1453,0,-1.1462,-1.1478,-1.1457,-1.1467,-1.1485,-1.1467,-1.1485,-1.1479,-1.1476,-1.1484,-1.1465,-1.1473,-1.1455,-1.1462,-1.1452,-1.1468,-1.1468,-1.1465,-1.1462,-1.1467,-1.1467,-1.1469,-1.1467,-1.1455,-1.1454,-1.1454,-1.1454,0,-1.1516,-1.1503,-1.1519,-1.1509,-1.1507,-1.152,-1.1511,-1.152,-1.1511,-1.1522,-1.1524,-1.1511,-1.1517,-1.1504,-1.1509,-1.1503,-1.1525,-1.1518,-1.1526,-1.1524,-1.1544,-1.1543,-1.161,-1.1619,-1.1551,-1.1552,-1.1553,0,-1.1549,-1.156,-1.1551,-1.1555,-1.1553,-1.1559,-1.1562,-1.1545,-1.1548,-1.1545,-1.1554,-1.1559,-1.1562,-1.1574,-1.1565,-1.1569,-1.1562,-1.1585,-1.1563,-1.1567,-1.1563,-1.1563,-1.1564,-1.1591,-1.1591,-1.1592,-1.1593,0,-1.1607,-1.16,-1.1604,-1.1605,-1.1609,-1.1609,-1.1609,-1.1613,-1.1595,-1.16,-1.1606,-1.1608,-1.1613,-1.1618,-1.162,-1.1617,-1.1602,-1.1599,-1.1604,-1.161,-1.1615,-1.1613,-1.154,-1.1598,-1.1598,-1.1597,-1.1597,-1.1597,-1.1652,-1.1661,-1.1656,-1.1661,-1.1658,-1.1658,-1.1665,-1.1657,-1.1662,-1.1664,-1.1654,-1.1663,-1.1659,-1.1659,-1.1657,-1.1664,-1.1654,-1.166,-1.1662,-1.1664,-1.1668,-1.1613,-1.1664,-1.1664,-1.1664,-1.1663,-1.1663,0,-1.171,-1.1705,-1.171,-1.1709,-1.1713,-1.1697,-1.1696,-1.17,-1.1708,-1.1705,-1.1708,-1.1715,-1.172,-1.1711,-1.1714,-1.1721,-1.1715,-1.1723,-1.1723,-1.1722,-1.1677,-1.1673,-1.1728,-1.1728,-1.1728,-1.1728,-1.1728,-1.1728,-1.1741,-1.1756,-1.1748,-1.1761,-1.1756,-1.1764,-1.1764,-1.1764,-1.1761,-1.177,-1.1774,-1.1767,-1.1762,-1.1765,-1.1768,-1.1765,-1.1768,-1.1779,-1.1774,-1.1732,-1.1725,-1.1719,-1.1716,-1.1779,-1.1779,-1.1819,-1.1819,-1.182]},{"header":{"parameterUnit":"m.s-1","parameterCategory":1,"la1":30.2991,"la2":30.254,"lo1":-89.0895,"lo2":-89.0444,"dy":0.0017,"dx":0.0017,"nx":28,"ny":28,"refTime":"2024-12-06T03:00:00:Z","depth":0,"parameterNumber":3,"parameterNumberName":"V-component_of_WINDS"},"data":[0,0,0,0,0,0,0,0,0,0,0,0,0,0,0,0,0,0,0,0,0,0,0,0,0,0,0,0,0,0,0,0,0,0,0,0,0,0,0,0,0,0,0,0,0,0,0,0,0,0,0,0,0,0,0,0,0,0,-5.2274,-5.2274,0,-5.2316,-5.2317,-5.2317,-5.227,-5.2268,-5.2266,-5.2265,-5.2304,-5.2306,-5.2309,0,0,0,0,0,0,0,0,0,0,0,0,0,-5.2148,-5.215,-5.2274,-5.2274,-5.2275,-5.2316,-5.2317,-5.2318,-5.227,-5.2268,-5.2266,-5.2264,-5.2303,-5.2306,-5.2309,0,0,0,0,0,0,0,0,0,0,0,0,0,-5.2198,-5.2151,-5.2274,-5.2257,-5.2255,-5.2316,-5.2317,-5.2318,-5.2271,-5.2268,-5.2265,-5.2263,-5.2302,-5.2306,-5.231,-5.2388,0,0,-5.2322,-5.2324,0,0,0,0,0,0,0,0,-5.2195,-5.2202,-5.2259,-5.2258,-5.2257,-5.2285,-5.2287,-5.2341,-5.2271,-5.2265,-5.2265,-5.2262,-5.2299,-5.2304,-5.2317,-5.239,-5.2392,-5.2322,-5.2325,-5.2327,-5.2328,0,0,0,0,0,0,0,-5.2191,-5.22,-5.2291,-5.2259,-5.2258,-5.2245,-5.2249,-5.2297,-5.2296,-5.2265,-5.2262,-5.2268,-5.2298,-5.2313,-5.2318,-5.2392,-5.2322,-5.2326,-5.2328,-5.233,-5.2533,-5.2536,0,0,0,0,0,0,-5.2191,-5.2198,-5.2289,-5.2292,-5.2219,-5.225,-5.2254,-5.2279,-5.2296,-5.2296,-5.227,-5.2265,-5.2308,-5.2313,-5.2319,-5.2413,-5.2327,-5.233,-5.2333,-5.253,-5.2534,-5.2537,0,0,0,0,0,0,-5.2188,-5.2199,-5.2287,-5.2244,-5.2254,-5.2255,-5.2283,-5.2281,-5.2296,-5.23,-5.2299,-5.2286,-5.2306,-5.2313,-5.2372,-5.2414,-5.2332,-5.2336,-5.2527,-5.2531,-5.2535,-5.2602,0,0,0,0,0,0,-5.2185,-5.2199,-5.2229,-5.2245,-5.2257,-5.2341,-5.2285,-5.2284,-5.2304,-5.2298,-5.2314,-5.2314,-5.2304,-5.2366,-5.2376,-5.2418,-5.2339,-5.2523,-5.2529,-5.2534,-5.2596,-5.2608,-5.2619,0,0,0,0,0,-5.218,-5.2245,-5.2231,-5.2242,-5.2295,-5.2344,-5.235,-5.2339,-5.2307,-5.2338,-5.234,-5.2314,-5.2408,-5.2373,-5.2383,-5.2427,-5.252,-5.2527,-5.2533,-5.2591,-5.2606,-5.2618,0,0,0,0,0,0,-5.2232,-5.2247,-5.2231,-5.2304,-5.2323,-5.2336,-5.2374,-5.2355,-5.2382,-5.2376,-5.2359,-5.2363,-5.2426,-5.2432,-5.2393,-5.2505,-5.2458,-5.2468,-5.2499,-5.2513,-5.2524,-5.2521,-5.2342,0,0,0,0,0,-5.2253,-5.2292,-5.2302,-5.2364,-5.2375,-5.2373,-5.2394,-5.2384,-5.2402,-5.241,-5.2416,-5.2434,-5.2468,-5.249,-5.2521,-5.2596,-5.2599,-5.2632,-5.2643,-5.2652,-5.2661,-5.2702,-5.2716,-5.2559,-5.2559,-5.2559,0,0,-5.2294,-5.2307,-5.2332,-5.2375,-5.2389,-5.243,-5.238,-5.2424,-5.2454,-5.2416,-5.2473,-5.2478,-5.2497,-5.2565,-5.2595,-5.2572,-5.2705,-5.2661,-5.2668,-5.2671,-5.271,-5.2725,-5.2738,-5.2563,-5.2562,-5.2562,0,0,-5.2391,-5.2404,-5.2459,-5.2474,-5.2497,-5.2495,-5.2508,-5.2524,-5.2527,-5.2584,-5.2557,-5.259,-5.2649,-5.2664,-5.2679,-5.2783,-5.276,-5.2793,-5.2852,-5.2892,-5.2905,-5.2916,-5.2954,-5.2968,-5.2801,-5.2801,-5.2801,0,-5.2439,-5.25,-5.2488,-5.2536,-5.2556,-5.2525,-5.258,-5.2594,-5.2625,-5.2639,-5.2613,-5.2687,-5.2697,-5.2768,-5.2794,-5.2807,-5.2821,-5.2792,-5.2904,-5.2915,-5.2925,-5.2961,-5.2976,-5.2805,-5.2805,-5.2805,-5.2804,0,-5.2559,-5.2602,-5.2643,-5.2676,-5.27,-5.2751,-5.2746,-5.2772,-5.2759,-5.276,-5.2819,-5.2831,-5.2864,-5.288,-5.2867,-5.295,-5.2935,-5.2907,-5.2861,-5.2945,-5.2978,-5.2992,-5.2811,-5.281,-5.2808,-5.2807,0,0,-5.269,-5.2717,-5.2732,-5.2748,-5.2771,-5.2803,-5.2852,-5.2886,-5.2909,-5.2931,-5.2972,-5.3022,-5.2997,-5.3015,-5.3003,-5.3039,-5.3122,-5.3006,-5.3006,-5.3028,-5.3214,-5.3236,-5.3253,-5.3106,-5.3109,-5.3111,-5.3213,0,-5.2788,-5.2875,-5.2867,-5.2949,-5.2989,-5.2961,-5.3003,-5.3022,-5.3024,-5.3057,-5.3058,-5.3095,-5.3058,-5.3068,-5.3102,-5.3105,-5.3159,-5.3097,-5.3144,-5.3146,-5.3141,-5.327,-5.3293,-5.3389,-5.3226,-5.3228,-5.323,0,-5.2914,-5.2944,-5.3031,-5.305,-5.3066,-5.3105,-5.3136,-5.3168,-5.3188,-5.3187,-5.3208,-5.3191,-5.3239,-5.3191,-5.3258,-5.3216,-5.3234,-5.3239,-5.3242,-5.3247,-5.3194,-5.3279,-5.3419,-5.3434,-5.325,-5.3249,-5.3247,0,-5.3002,-5.3063,-5.3124,-5.3138,-5.316,-5.3188,-5.3199,-5.3216,-5.3238,-5.3265,-5.3279,-5.331,-5.3328,-5.3352,-5.3344,-5.331,-5.3413,-5.3364,-5.3413,-5.3414,-5.3437,-5.3436,-5.3583,-5.3447,-5.3447,-5.3446,-5.3446,0,-5.3114,-5.3168,-5.3164,-5.3202,-5.3262,-5.3251,-5.3311,-5.3317,-5.3333,-5.3371,-5.3346,-5.3382,-5.3368,-5.3403,-5.3396,-5.3453,-5.346,-5.3461,-5.3459,-5.3464,-5.3464,-5.3476,-5.347,-5.345,-5.3449,-5.3449,-5.3448,0,-5.3223,-5.3222,-5.3287,-5.3303,-5.3309,-5.3353,-5.3366,-5.3401,-5.3402,-5.3449,-5.346,-5.346,-5.35,-5.3494,-5.3536,-5.3532,-5.3603,-5.3592,-5.3598,-5.3596,-5.3646,-5.3642,-5.3807,-5.3829,-5.3678,-5.3679,-5.368,0,-5.3294,-5.3336,-5.3359,-5.3383,-5.3396,-5.3435,-5.3458,-5.3448,-5.3473,-5.35,-5.3531,-5.3569,-5.3598,-5.3662,-5.3665,-5.3698,-5.3688,-5.3744,-5.3693,-5.3697,-5.3691,-5.3689,-5.3693,-5.3754,-5.3756,-5.3757,-5.3759,0,-5.3422,-5.342,-5.3455,-5.3491,-5.3519,-5.3546,-5.357,-5.3591,-5.3583,-5.3612,-5.3653,-5.3676,-5.3721,-5.3758,-5.379,-5.3798,-5.3778,-5.3775,-5.3788,-5.3794,-5.3796,-5.3797,-5.3627,-5.3771,-5.377,-5.3769,-5.3768,-5.3768,-5.3515,-5.3552,-5.3574,-5.3614,-5.3632,-5.3655,-5.3689,-5.3695,-5.373,-5.3767,-5.3758,-5.3805,-5.3824,-5.3864,-5.3876,-5.3912,-5.3891,-5.391,-5.3915,-5.392,-5.3927,-5.379,-5.3917,-5.3917,-5.3916,-5.3916,-5.3916,0,-5.3643,-5.3656,-5.3693,-5.3729,-5.3761,-5.374,-5.3766,-5.3793,-5.3835,-5.3855,-5.3885,-5.3933,-5.3969,-5.3976,-5.4011,-5.4038,-5.4029,-5.4047,-5.4046,-5.4048,-5.3943,-5.3929,-5.4054,-5.4054,-5.4054,-5.4054,-5.4054,-5.4054,-5.3713,-5.3775,-5.3776,-5.3846,-5.3858,-5.3905,-5.3922,-5.3943,-5.3959,-5.4014,-5.4045,-5.405,-5.4065,-5.4101,-5.4133,-5.4134,-5.4148,-5.4171,-5.4168,-5.4069,-5.4056,-5.4043,-5.4029,-5.4173,-5.4174,-5.427,-5.4271,-5.4272]}]]